Starlink 30313

operational
NORAD ID: 57676 Int'l Des: 2023-124 Owner: SPXS Country: US Constellation: starlink
LEOCIRCULAR

About Starlink 30313

Description loading...

Live Position

Loading 3D Globe...

Upcoming Passes

Altitude History

Altitude vs Time

uPlot chart will show altitude changes over time

Two-Line Element Set

1 57676U 23124P 26035.10202161 .00000120 00000-0 16180-4 0 9995
2 57676 53.1628 2.9961 0001448 103.3213 256.7949 15.30187146138421
Epoch: Feb 4, 2026 • Age: 21 hours

Current Status

Altitude 481.9 km
Velocity 7.62 km/s
Sub-Earth Point -22.65°S, 65.83°E
Launch Date Aug 22, 2023
Age 2.4 years
Type internet

Technical Details

Classification Payload
Mass 730.00 kg
Dry Mass 700.00 kg
Total Mass 730.00 kg
Length 0.30 m
Diameter 4.10 m
Span 29.00 m
Shape Box + pan
Manufacturer SPXS
Bus Type Starlink V2M
Phase Status In Orbit
Owner/State SPXS/US

Large Constellations

Loading constellations...